EPWR

Copernicus Wrocław Airport

Wrocław, Poland
Issued Wind Visibility Ceiling Temperature Dew Point Humidity Barometer
Aug-18
08:30 UTC
240°
6 KTS
10,000+ meters   25° C
77° F
17° C
63° F
61% 30.03" Hg
1017 hPa
VFR
Aug-18
08:00 UTC
230°
4 KTS
10,000+ meters   24° C
75° F
17° C
63° F
65% 30.03" Hg
1017 hPa
VFR
Aug-18
07:30 UTC
200°
5 KTS
10,000+ meters   24° C
75° F
16° C
61° F
61% 30.03" Hg
1017 hPa
VFR
Aug-18
07:00 UTC
220°
4 KTS
10,000+ meters   23° C
73° F
17° C
63° F
69% 30.03" Hg
1017 hPa
VFR
Aug-18
06:30 UTC
230°
4 KTS
10,000+ meters   22° C
72° F
16° C
61° F
69% 30.03" Hg
1017 hPa
VFR
Aug-18
06:00 UTC
180°
3 KTS
10,000+ meters   20° C
68° F
17° C
63° F
83% 30.03" Hg
1017 hPa
VFR
Aug-18
05:30 UTC
130°
3 KTS
10,000+ meters   19° C
66° F
17° C
63° F
88% 30.03" Hg
1017 hPa
VFR
Aug-18
05:00 UTC
140°
5 KTS
10,000+ meters   18° C
64° F
16° C
61° F
88% 30.03" Hg
1017 hPa
VFR
Aug-18
04:30 UTC
140°
2 KTS
10,000+ meters   18° C
64° F
16° C
61° F
88% 30.03" Hg
1017 hPa
VFR
Aug-18
04:00 UTC
Varies @2 KTS 10,000+ meters   18° C
64° F
16° C
61° F
88% 30.03" Hg
1017 hPa
VFR
Aug-18
03:30 UTC
050°
3 KTS
10,000+ meters   18° C
64° F
16° C
61° F
88% 30.03" Hg
1017 hPa
VFR
Aug-18
03:00 UTC
340°
4 KTS
Gust 14 KTS
10,000+ meters   18° C
64° F
16° C
61° F
88% 30.03" Hg
1017 hPa
VFR
Aug-18
02:30 UTC
150°
3 KTS
10,000+ meters   18° C
64° F
16° C
61° F
88% 30" Hg
1016 hPa
VFR
Aug-18
02:00 UTC
150°
3 KTS
10,000+ meters   19° C
66° F
16° C
61° F
83% 30" Hg
1016 hPa
VFR
Aug-18
01:30 UTC
150°
5 KTS
10,000+ meters   18° C
64° F
16° C
61° F
88% 30" Hg
1016 hPa
VFR
Aug-18
01:00 UTC
140°
7 KTS
10,000+ meters   17° C
63° F
15° C
59° F
88% 30" Hg
1016 hPa
VFR
Aug-18
00:30 UTC
140°
8 KTS
10,000+ meters   17° C
63° F
15° C
59° F
88% 30.03" Hg
1017 hPa
VFR
Aug-18
00:00 UTC
130°
6 KTS
10,000+ meters   18° C
64° F
15° C
59° F
83% 30.03" Hg
1017 hPa
VFR
Aug-17
23:30 UTC
140°
7 KTS
10,000+ meters   18° C
64° F
15° C
59° F
83% 30.03" Hg
1017 hPa
VFR
Aug-17
23:00 UTC
140°
7 KTS
10,000+ meters   17° C
63° F
14° C
57° F
83% 30.03" Hg
1017 hPa
VFR
Aug-17
22:30 UTC
140°
8 KTS
10,000+ meters   18° C
64° F
14° C
57° F
78% 30.03" Hg
1017 hPa
VFR
Aug-17
22:00 UTC
150°
8 KTS
10,000+ meters   18° C
64° F
14° C
57° F
78% 30.03" Hg
1017 hPa
VFR
Aug-17
21:30 UTC
140°
6 KTS
10,000+ meters   18° C
64° F
14° C
57° F
78% 30.06" Hg
1018 hPa
VFR
Aug-17
21:00 UTC
140°
9 KTS
10,000+ meters   19° C
66° F
14° C
57° F
73% 30.03" Hg
1017 hPa
VFR
Aug-17
20:30 UTC
140°
8 KTS
10,000+ meters   18° C
64° F
13° C
55° F
73% 30.06" Hg
1018 hPa
VFR
Aug-17
20:00 UTC
140°
6 KTS
10,000+ meters   19° C
66° F
13° C
55° F
68% 30.06" Hg
1018 hPa
VFR
Aug-17
19:30 UTC
140°
7 KTS
10,000+ meters   20° C
68° F
13° C
55° F
64% 30.06" Hg
1018 hPa
VFR
Aug-17
19:00 UTC
130°
8 KTS
10,000+ meters   20° C
68° F
13° C
55° F
64% 30.06" Hg
1018 hPa
VFR
Aug-17
18:30 UTC
Varies @1 KTS 10,000+ meters   21° C
70° F
13° C
55° F
60% 30.06" Hg
1018 hPa
VFR
Aug-17
18:00 UTC
120°
5 KTS
10,000+ meters   21° C
70° F
14° C
57° F
64% 30.06" Hg
1018 hPa
VFR
Aug-17
17:30 UTC
120°
7 KTS
10,000+ meters   21° C
70° F
14° C
57° F
64% 30.06" Hg
1018 hPa
VFR
Aug-17
17:00 UTC
120°
7 KTS
10,000+ meters   23° C
73° F
15° C
59° F
61% 30.06" Hg
1018 hPa
VFR
Aug-17
16:30 UTC
080°
3 KTS
10,000+ meters   25° C
77° F
15° C
59° F
54% 30.06" Hg
1018 hPa
VFR
Aug-17
16:00 UTC
110°
4 KTS
10,000+ meters   25° C
77° F
13° C
55° F
47% 30.06" Hg
1018 hPa
VFR
Aug-17
15:30 UTC
Varies @2 KTS 10,000+ meters   26° C
79° F
13° C
55° F
45% 30.06" Hg
1018 hPa
VFR
Aug-17
15:00 UTC
120°
4 KTS
10,000+ meters   26° C
79° F
13° C
55° F
45% 30.09" Hg
1019 hPa
VFR
Aug-17
14:30 UTC
Varies @2 KTS 10,000+ meters   26° C
79° F
13° C
55° F
45% 30.09" Hg
1019 hPa
VFR
Aug-17
14:00 UTC
Varies @2 KTS 10,000+ meters   25° C
77° F
12° C
54° F
44% 30.09" Hg
1019 hPa
VFR
Aug-17
13:30 UTC
040°
3 KTS
10,000+ meters   25° C
77° F
13° C
55° F
47% 30.09" Hg
1019 hPa
VFR
Aug-17
13:00 UTC
Varies @3 KTS 10,000+ meters   25° C
77° F
12° C
54° F
44% 30.12" Hg
1020 hPa
VFR
Aug-17
12:30 UTC
080°
5 KTS
10,000+ meters   25° C
77° F
13° C
55° F
47% 30.12" Hg
1020 hPa
VFR
Aug-17
12:00 UTC
130°
6 KTS
10,000+ meters   24° C
75° F
14° C
57° F
54% 30.12" Hg
1020 hPa
VFR
Aug-17
11:30 UTC
Varies @4 KTS 10,000+ meters   24° C
75° F
16° C
61° F
61% 30.12" Hg
1020 hPa
VFR
Aug-17
11:00 UTC
140°
8 KTS
10,000+ meters   22° C
72° F
15° C
59° F
65% 30.15" Hg
1021 hPa
VFR
Aug-17
10:30 UTC
130°
7 KTS
10,000+ meters   23° C
73° F
16° C
61° F
65% 30.15" Hg
1021 hPa
VFR
Aug-17
10:00 UTC
Varies @3 KTS 10,000+ meters Broken
2,800' AGL
23° C
73° F
15° C
59° F
61% 30.15" Hg
1021 hPa
MVFR
Aug-17
09:30 UTC
140°
5 KTS
10,000+ meters Broken
4,300' AGL
22° C
72° F
16° C
61° F
69% 30.15" Hg
1021 hPa
VFR
Aug-17
09:00 UTC
120°
6 KTS
10,000+ meters   22° C
72° F
15° C
59° F
65% 30.18" Hg
1022 hPa
VFR